UAL1831 KEWR-KTPA

Flight info

Callsign UAL1831
Flight time 2h 22m
Altitude 32000
Route ELVAE NECCK WHITE Q409 PUPYY BAAMF DADES2
Aircraft B738/M-SDE2E3FGHIRWXY/LB1

Departure

Time 2026-05-03 23:14
Airport Newark Liberty International Airport (KEWR)

Arrival

Time 2026-05-04 01:36
Airport Tampa International Airport (KTPA)
Time Latitude Longitude Altitude Speed Heading
2026-05-03 22:19 40.69540 -74.17572 19 ft 0 kts 187°
2026-05-03 22:57 40.69543 -74.17572 19 ft 3 kts 188°
2026-05-03 22:57 40.69565 -74.17560 22 ft 4 kts 226°
2026-05-03 22:58 40.69579 -74.17539 21 ft 4 kts 234°
2026-05-03 22:58 40.69590 -74.17508 19 ft 4 kts 255°
2026-05-03 22:58 40.69599 -74.17486 21 ft 3 kts 221°
2026-05-03 22:58 40.69619 -74.17463 19 ft 4 kts 221°
2026-05-03 22:59 40.69640 -74.17439 22 ft 4 kts 221°
2026-05-03 22:59 40.69657 -74.17416 21 ft 4 kts 258°
2026-05-03 22:59 40.69654 -74.17396 21 ft 4 kts 346°
2026-05-03 22:59 40.69637 -74.17403 20 ft 4 kts 41°
2026-05-03 23:00 40.69626 -74.17415 18 ft 1 kts 41°
2026-05-03 23:06 40.69653 -74.17385 20 ft 7 kts 40°
2026-05-03 23:06 40.69689 -74.17344 22 ft 7 kts 40°
2026-05-03 23:06 40.69725 -74.17304 22 ft 7 kts 43°
2026-05-03 23:07 40.69735 -74.17244 20 ft 7 kts 60°
2026-05-03 23:07 40.69762 -74.17191 22 ft 7 kts 53°
2026-05-03 23:07 40.69790 -74.17140 21 ft 7 kts 69°
2026-05-03 23:07 40.69760 -74.17096 20 ft 7 kts 154°
2026-05-03 23:08 40.69716 -74.17071 20 ft 7 kts 153°
2026-05-03 23:08 40.69672 -74.17044 21 ft 7 kts 158°
2026-05-03 23:08 40.69636 -74.16996 20 ft 8 kts 99°
2026-05-03 23:08 40.69642 -74.16923 18 ft 8 kts 77°
2026-05-03 23:09 40.69658 -74.16855 20 ft 8 kts 69°
2026-05-03 23:09 40.69676 -74.16789 19 ft 8 kts 72°
2026-05-03 23:09 40.69701 -74.16733 17 ft 8 kts 33°
2026-05-03 23:09 40.69752 -74.16698 15 ft 9 kts 26°
2026-05-03 23:10 40.69810 -74.16661 14 ft 9 kts 25°
2026-05-03 23:10 40.69866 -74.16625 14 ft 9 kts 27°
2026-05-03 23:10 40.69921 -74.16589 15 ft 9 kts 26°
2026-05-03 23:10 40.69974 -74.16555 14 ft 8 kts 25°
2026-05-03 23:11 40.70027 -74.16522 14 ft 8 kts 25°
2026-05-03 23:11 40.70078 -74.16491 15 ft 8 kts 24°
2026-05-03 23:11 40.70131 -74.16476 16 ft 8 kts
2026-05-03 23:11 40.70183 -74.16467 17 ft 7 kts
2026-05-03 23:12 40.70234 -74.16459 18 ft 7 kts
2026-05-03 23:12 40.70272 -74.16427 17 ft 7 kts 70°
2026-05-03 23:12 40.70279 -74.16363 18 ft 7 kts 77°
2026-05-03 23:12 40.70302 -74.16308 18 ft 7 kts 55°
2026-05-03 23:13 40.70324 -74.16256 20 ft 7 kts 85°
2026-05-03 23:13 40.70297 -74.16214 20 ft 7 kts 177°
2026-05-03 23:13 40.70241 -74.16230 17 ft 9 kts 200°
2026-05-03 23:13 40.70183 -74.16268 16 ft 9 kts 206°
2026-05-03 23:14 40.70063 -74.16344 16 ft 47 kts 205°
2026-05-03 23:14 40.69540 -74.16675 22 ft 117 kts 205°
2026-05-03 23:14 40.68627 -74.17249 64 ft 169 kts 210°
2026-05-03 23:14 40.67522 -74.17925 746 ft 170 kts 212°
2026-05-03 23:15 40.66418 -74.18526 1566 ft 181 kts 198°
2026-05-03 23:15 40.65069 -74.18783 1867 ft 208 kts 204°
2026-05-03 23:15 40.63778 -74.19765 2119 ft 226 kts 220°
2026-05-03 23:15 40.62402 -74.20992 2478 ft 248 kts 218°
2026-05-03 23:16 40.60926 -74.22250 3222 ft 254 kts 218°
2026-05-03 23:16 40.59434 -74.23508 4067 ft 257 kts 218°
2026-05-03 23:16 40.57913 -74.24796 4820 ft 262 kts 218°
2026-05-03 23:16 40.56378 -74.26094 5651 ft 263 kts 218°
2026-05-03 23:17 40.54779 -74.27312 6401 ft 273 kts 205°
2026-05-03 23:17 40.52835 -74.27488 7041 ft 294 kts 170°
2026-05-03 23:17 40.50913 -74.26478 7756 ft 301 kts 156°
2026-05-03 23:17 40.49010 -74.25263 8422 ft 307 kts 158°
2026-05-03 23:18 40.47074 -74.24101 9092 ft 312 kts 159°
2026-05-03 23:18 40.45069 -74.22979 9827 ft 315 kts 160°
2026-05-03 23:18 40.43009 -74.21888 10341 ft 326 kts 161°
2026-05-03 23:18 40.40816 -74.20770 10513 ft 349 kts 162°
2026-05-03 23:19 40.38475 -74.19602 10714 ft 370 kts 162°
2026-05-03 23:19 40.36001 -74.18379 10864 ft 390 kts 162°
2026-05-03 23:19 40.33389 -74.17180 11030 ft 406 kts 168°
2026-05-03 23:19 40.30577 -74.16643 11428 ft 409 kts 182°
2026-05-03 23:20 40.27749 -74.16905 12015 ft 407 kts 195°
2026-05-03 23:20 40.25025 -74.17716 12698 ft 406 kts 198°
2026-05-03 23:20 40.22242 -74.18601 13423 ft 407 kts 198°
2026-05-03 23:20 40.19513 -74.19461 14054 ft 410 kts 198°
2026-05-03 23:21 40.16719 -74.20323 14639 ft 414 kts 198°
2026-05-03 23:21 40.13903 -74.21174 15252 ft 417 kts 198°
2026-05-03 23:21 40.11063 -74.22022 15878 ft 420 kts 198°
2026-05-03 23:21 40.08204 -74.22872 16473 ft 423 kts 198°
2026-05-03 23:22 40.02441 -74.24670 17656 ft 425 kts 204°
2026-05-03 23:22 39.99732 -74.26153 18272 ft 420 kts 214°
2026-05-03 23:22 39.97288 -74.28190 18771 ft 415 kts 223°
2026-05-03 23:23 39.94976 -74.30466 19293 ft 417 kts 223°
2026-05-03 23:23 39.92651 -74.32741 19799 ft 419 kts 223°
2026-05-03 23:23 39.90301 -74.35013 20297 ft 422 kts 222°
2026-05-03 23:23 39.87930 -74.37282 20777 ft 424 kts 222°
2026-05-03 23:24 39.85535 -74.39560 21259 ft 426 kts 222°
2026-05-03 23:24 39.83132 -74.41840 21762 ft 427 kts 222°
2026-05-03 23:24 39.80804 -74.44225 22264 ft 423 kts 228°
2026-05-03 23:24 39.78722 -74.46928 22690 ft 423 kts 231°
2026-05-03 23:25 39.76679 -74.49700 23098 ft 426 kts 232°
2026-05-03 23:25 39.74627 -74.52490 23512 ft 428 kts 232°
2026-05-03 23:25 39.72559 -74.55283 23880 ft 430 kts 231°
2026-05-03 23:25 39.70475 -74.58076 24238 ft 432 kts 231°
2026-05-03 23:26 39.68374 -74.60874 24582 ft 433 kts 231°
2026-05-03 23:26 39.66261 -74.63674 24919 ft 435 kts 231°
2026-05-03 23:26 39.64165 -74.66445 25241 ft 437 kts 231°
2026-05-03 23:26 39.62033 -74.69258 25556 ft 438 kts 231°
2026-05-03 23:27 39.59889 -74.72083 25873 ft 440 kts 231°
2026-05-03 23:27 39.57743 -74.74909 26261 ft 439 kts 231°
2026-05-03 23:27 39.55600 -74.77726 26718 ft 437 kts 231°
2026-05-03 23:27 39.53470 -74.80525 27209 ft 435 kts 231°
2026-05-03 23:28 39.51354 -74.83303 27699 ft 432 kts 231°
2026-05-03 23:28 39.49245 -74.86071 28151 ft 431 kts 231°
2026-05-03 23:28 39.47142 -74.88829 28580 ft 429 kts 232°
2026-05-03 23:28 39.45052 -74.91568 29143 ft 425 kts 232°
2026-05-03 23:29 39.42978 -74.94282 29644 ft 423 kts 232°
2026-05-03 23:29 39.40909 -74.96990 30066 ft 422 kts 232°
2026-05-03 23:29 39.38843 -74.99692 30390 ft 422 kts 232°
2026-05-03 23:29 39.36775 -75.02395 30716 ft 422 kts 232°
2026-05-03 23:30 39.34735 -75.05058 31056 ft 421 kts 232°
2026-05-03 23:30 39.32677 -75.07741 31436 ft 419 kts 232°
2026-05-03 23:30 39.30629 -75.10406 31817 ft 417 kts 232°
2026-05-03 23:30 39.28551 -75.13055 31949 ft 421 kts 231°
2026-05-03 23:31 39.24185 -75.18145 31989 ft 422 kts 229°
2026-05-03 23:31 39.19833 -75.23128 31994 ft 416 kts 230°
2026-05-03 23:32 39.15532 -75.28122 32008 ft 416 kts 230°
2026-05-03 23:32 39.11267 -75.33096 32005 ft 416 kts 230°
2026-05-03 23:33 39.06981 -75.38083 31994 ft 415 kts 230°
2026-05-03 23:33 39.02290 -75.42539 32008 ft 432 kts 215°
2026-05-03 23:34 38.96460 -75.44997 31994 ft 456 kts 198°
2026-05-03 23:34 38.90103 -75.45844 32032 ft 460 kts 195°
2026-05-03 23:35 38.83751 -75.46632 32032 ft 457 kts 196°
2026-05-03 23:35 38.77445 -75.47502 32035 ft 455 kts 197°
2026-05-03 23:36 38.71152 -75.48386 32038 ft 454 kts 197°
2026-05-03 23:36 38.64909 -75.49231 32013 ft 453 kts 197°
2026-05-03 23:37 38.58634 -75.50072 32040 ft 451 kts 197°
2026-05-03 23:37 38.52398 -75.50912 32053 ft 450 kts 197°
2026-05-03 23:38 38.46163 -75.51753 32053 ft 450 kts 197°
2026-05-03 23:38 38.39948 -75.52587 32050 ft 447 kts 197°
2026-05-03 23:39 38.34045 -75.54164 32063 ft 424 kts 212°
2026-05-03 23:39 38.28972 -75.57590 32059 ft 405 kts 224°
2026-05-03 23:40 38.24341 -75.61688 32050 ft 406 kts 224°
2026-05-03 23:40 38.19694 -75.65768 32055 ft 406 kts 224°
2026-05-03 23:41 38.15027 -75.69835 32061 ft 407 kts 224°
2026-05-03 23:41 38.10346 -75.73899 32059 ft 408 kts 224°
2026-05-03 23:42 38.05651 -75.77967 32061 ft 409 kts 224°
2026-05-03 23:42 38.01737 -75.81353 32013 ft 409 kts 224°
2026-05-03 23:43 37.97039 -75.85410 32060 ft 409 kts 224°
2026-05-03 23:43 37.92339 -75.89465 32073 ft 409 kts 224°
2026-05-03 23:44 37.87637 -75.93516 32078 ft 409 kts 224°
2026-05-03 23:44 37.82927 -75.97566 32065 ft 409 kts 224°
2026-05-03 23:45 37.78214 -76.01611 32063 ft 408 kts 224°
2026-05-03 23:45 37.73537 -76.05621 32062 ft 408 kts 224°
2026-05-03 23:46 37.68839 -76.09644 32070 ft 408 kts 224°
2026-05-03 23:46 37.64135 -76.13666 32071 ft 408 kts 224°
2026-05-03 23:47 37.59454 -76.17660 32070 ft 408 kts 224°
2026-05-03 23:47 37.54750 -76.21679 32073 ft 408 kts 224°
2026-05-03 23:48 37.50047 -76.25693 32077 ft 408 kts 224°
2026-05-03 23:48 37.45339 -76.29707 32078 ft 409 kts 224°
2026-05-03 23:49 37.40624 -76.33721 32076 ft 409 kts 224°
2026-05-03 23:49 37.35943 -76.37698 32063 ft 408 kts 223°
2026-05-03 23:50 37.31236 -76.41691 32072 ft 408 kts 223°
2026-05-03 23:50 37.26524 -76.45683 32074 ft 408 kts 223°
2026-05-03 23:51 37.21812 -76.49670 32074 ft 408 kts 223°
2026-05-03 23:51 37.17098 -76.53651 32043 ft 409 kts 223°
2026-05-03 23:52 37.12380 -76.57630 32058 ft 409 kts 223°
2026-05-03 23:52 37.07657 -76.61607 32064 ft 409 kts 223°
2026-05-03 23:53 37.02961 -76.65555 32065 ft 409 kts 223°
2026-05-03 23:53 36.98230 -76.69527 32068 ft 410 kts 223°
2026-05-03 23:54 36.93493 -76.73494 32060 ft 409 kts 222°
2026-05-03 23:54 36.88762 -76.77455 32080 ft 410 kts 222°
2026-05-03 23:55 36.84023 -76.81417 32087 ft 410 kts 222°
2026-05-03 23:55 36.79272 -76.85381 32085 ft 411 kts 222°
2026-05-03 23:56 36.74520 -76.89341 32044 ft 411 kts 222°
2026-05-03 23:56 36.69787 -76.93278 32070 ft 411 kts 222°
2026-05-03 23:57 36.65025 -76.97233 32085 ft 412 kts 221°
2026-05-03 23:57 36.60253 -77.01191 32080 ft 412 kts 221°
2026-05-03 23:58 36.55477 -77.05146 32085 ft 413 kts 221°
2026-05-03 23:58 36.50692 -77.09103 32063 ft 412 kts 221°
2026-05-03 23:59 36.45909 -77.13052 32089 ft 413 kts 221°
2026-05-03 23:59 36.41118 -77.17002 32104 ft 413 kts 221°
2026-05-04 00:00 36.36360 -77.20926 32107 ft 413 kts 221°
2026-05-04 00:00 36.31569 -77.24867 32097 ft 413 kts 222°
2026-05-04 00:01 36.27039 -77.29164 32093 ft 409 kts 225°
2026-05-04 00:01 36.22577 -77.33548 32099 ft 409 kts 225°
2026-05-04 00:02 36.18102 -77.37927 32093 ft 410 kts 225°
2026-05-04 00:02 36.13633 -77.42275 32094 ft 411 kts 225°
2026-05-04 00:03 36.09130 -77.46641 32096 ft 412 kts 225°
2026-05-04 00:03 36.04623 -77.51002 32093 ft 411 kts 224°
2026-05-04 00:04 36.00117 -77.55356 32103 ft 411 kts 224°
2026-05-04 00:04 35.95601 -77.59713 32108 ft 412 kts 224°
2026-05-04 00:05 35.91083 -77.64067 32101 ft 412 kts 224°
2026-05-04 00:05 35.86552 -77.68426 32067 ft 413 kts 224°
2026-05-04 00:06 35.82027 -77.72773 32080 ft 413 kts 224°
2026-05-04 00:06 35.77526 -77.77090 32090 ft 413 kts 224°
2026-05-04 00:07 35.72989 -77.81436 32093 ft 413 kts 224°
2026-05-04 00:07 35.68451 -77.85776 32095 ft 413 kts 224°
2026-05-04 00:08 35.63910 -77.90112 32087 ft 413 kts 224°
2026-05-04 00:08 35.59376 -77.94434 32087 ft 411 kts 224°
2026-05-04 00:09 35.54879 -77.98717 32095 ft 411 kts 224°
2026-05-04 00:09 35.50357 -78.03017 32103 ft 411 kts 224°
2026-05-04 00:10 35.45826 -78.07320 32104 ft 411 kts 224°
2026-05-04 00:10 35.41294 -78.11616 32098 ft 411 kts 223°
2026-05-04 00:11 35.36765 -78.15905 32082 ft 412 kts 223°
2026-05-04 00:11 35.32226 -78.20197 32084 ft 412 kts 223°
2026-05-04 00:12 35.27711 -78.24458 32081 ft 412 kts 223°
2026-05-04 00:12 35.23167 -78.28740 32076 ft 412 kts 223°
2026-05-04 00:13 35.18612 -78.33026 32049 ft 412 kts 223°
2026-05-04 00:13 35.14071 -78.37295 32090 ft 412 kts 223°
2026-05-04 00:14 35.09527 -78.41560 32098 ft 412 kts 223°
2026-05-04 00:14 35.04989 -78.45815 32098 ft 411 kts 223°
2026-05-04 00:15 35.00482 -78.50033 32100 ft 411 kts 223°
2026-05-04 00:15 34.95941 -78.54278 32097 ft 411 kts 223°
2026-05-04 00:16 34.91419 -78.58499 32078 ft 409 kts 223°
2026-05-04 00:16 34.86902 -78.62709 32083 ft 408 kts 223°
2026-05-04 00:17 34.82386 -78.66913 32083 ft 408 kts 223°
2026-05-04 00:17 34.77869 -78.71112 32096 ft 409 kts 223°
2026-05-04 00:18 34.73347 -78.75310 32077 ft 409 kts 223°
2026-05-04 00:18 34.68820 -78.79506 32077 ft 409 kts 223°
2026-05-04 00:19 34.64299 -78.83690 32086 ft 408 kts 223°
2026-05-04 00:19 34.59810 -78.87840 32090 ft 408 kts 223°
2026-05-04 00:20 34.55294 -78.92010 32091 ft 408 kts 223°
2026-05-04 00:20 34.50776 -78.96174 32093 ft 408 kts 223°
2026-05-04 00:21 34.46273 -79.00333 32088 ft 406 kts 223°
2026-05-04 00:21 34.41768 -79.04454 32096 ft 405 kts 221°
2026-05-04 00:22 34.37153 -79.08385 32095 ft 406 kts 220°
2026-05-04 00:22 34.32549 -79.12285 32110 ft 406 kts 220°
2026-05-04 00:23 34.27936 -79.16227 32113 ft 406 kts 220°
2026-05-04 00:23 34.23450 -79.20341 32105 ft 402 kts 224°
2026-05-04 00:24 34.19125 -79.24623 32107 ft 401 kts 224°
2026-05-04 00:24 34.14811 -79.28891 32112 ft 401 kts 224°
2026-05-04 00:25 34.10490 -79.33142 32112 ft 400 kts 224°
2026-05-04 00:25 34.06166 -79.37382 32107 ft 400 kts 224°
2026-05-04 00:26 34.01838 -79.41620 32088 ft 400 kts 224°
2026-05-04 00:26 33.97542 -79.45818 32098 ft 400 kts 224°
2026-05-04 00:27 33.93216 -79.50044 32105 ft 400 kts 224°
2026-05-04 00:27 33.88892 -79.54262 32105 ft 400 kts 224°
2026-05-04 00:28 33.84537 -79.58463 32100 ft 401 kts 223°
2026-05-04 00:28 33.80123 -79.62577 32102 ft 401 kts 222°
2026-05-04 00:29 33.75700 -79.66680 32097 ft 401 kts 222°
2026-05-04 00:29 33.71287 -79.70779 32106 ft 401 kts 222°
2026-05-04 00:30 33.66902 -79.74857 32112 ft 401 kts 222°
2026-05-04 00:30 33.62482 -79.78964 32111 ft 401 kts 222°
2026-05-04 00:31 33.58061 -79.83069 32112 ft 402 kts 222°
2026-05-04 00:31 33.53632 -79.87173 32074 ft 402 kts 222°
2026-05-04 00:32 33.49234 -79.91244 32094 ft 402 kts 222°
2026-05-04 00:32 33.44803 -79.95341 32105 ft 402 kts 222°
2026-05-04 00:33 33.38155 -80.01476 32111 ft 402 kts 222°
2026-05-04 00:34 33.33719 -80.05563 32118 ft 402 kts 222°
2026-05-04 00:34 33.30029 -80.08959 32116 ft 402 kts 222°
2026-05-04 00:35 33.25593 -80.13036 32113 ft 402 kts 222°
2026-05-04 00:35 33.21156 -80.17109 32136 ft 402 kts 222°
2026-05-04 00:36 33.16713 -80.21183 32113 ft 403 kts 222°
2026-05-04 00:36 33.12266 -80.25254 32111 ft 403 kts 222°
2026-05-04 00:37 33.07843 -80.29299 32111 ft 403 kts 221°
2026-05-04 00:37 33.03385 -80.33369 32109 ft 403 kts 221°
2026-05-04 00:38 32.98929 -80.37433 32106 ft 403 kts 221°
2026-05-04 00:38 32.94470 -80.41494 32106 ft 403 kts 221°
2026-05-04 00:39 32.90013 -80.45549 32110 ft 403 kts 221°
2026-05-04 00:39 32.85551 -80.49603 32105 ft 403 kts 221°
2026-05-04 00:40 32.81091 -80.53650 32104 ft 403 kts 221°
2026-05-04 00:40 32.76630 -80.57692 32103 ft 403 kts 221°
2026-05-04 00:41 32.72169 -80.61731 32110 ft 403 kts 221°
2026-05-04 00:41 32.67763 -80.65773 32116 ft 403 kts 222°
2026-05-04 00:42 32.63356 -80.69893 32117 ft 403 kts 222°
2026-05-04 00:42 32.58948 -80.74008 32119 ft 403 kts 222°
2026-05-04 00:43 32.54536 -80.78112 32094 ft 403 kts 222°
2026-05-04 00:43 32.50127 -80.82205 32114 ft 402 kts 222°
2026-05-04 00:44 32.45749 -80.86263 32115 ft 402 kts 222°
2026-05-04 00:44 32.41338 -80.90347 32125 ft 402 kts 222°
2026-05-04 00:45 32.36923 -80.94431 32117 ft 403 kts 221°
2026-05-04 00:45 32.32502 -80.98515 32119 ft 403 kts 221°
2026-05-04 00:46 32.28038 -81.02552 32108 ft 405 kts 218°
2026-05-04 00:46 32.23118 -81.05867 32115 ft 407 kts 214°
2026-05-04 00:47 32.18199 -81.09119 32124 ft 407 kts 214°
2026-05-04 00:47 32.13259 -81.12410 32116 ft 407 kts 214°
2026-05-04 00:48 32.08320 -81.15702 32115 ft 407 kts 214°
2026-05-04 00:48 32.03378 -81.18994 32047 ft 407 kts 214°
2026-05-04 00:49 31.98485 -81.22246 32079 ft 406 kts 214°
2026-05-04 00:49 31.93957 -81.26087 32095 ft 399 kts 226°
2026-05-04 00:50 31.89857 -81.30489 32106 ft 400 kts 225°
2026-05-04 00:50 31.85723 -81.34878 32112 ft 400 kts 225°
2026-05-04 00:51 31.81571 -81.39262 32110 ft 401 kts 225°
2026-05-04 00:51 31.77416 -81.43641 32088 ft 401 kts 225°
2026-05-04 00:52 31.73290 -81.47983 32107 ft 401 kts 225°
2026-05-04 00:52 31.69135 -81.52353 32108 ft 401 kts 225°
2026-05-04 00:53 31.64974 -81.56723 32109 ft 401 kts 225°
2026-05-04 00:53 31.60818 -81.61083 32127 ft 401 kts 225°
2026-05-04 00:54 31.56652 -81.65446 32130 ft 401 kts 225°
2026-05-04 00:54 31.52485 -81.69804 32117 ft 402 kts 225°
2026-05-04 00:55 31.48313 -81.74168 32133 ft 402 kts 225°
2026-05-04 00:55 31.44135 -81.78530 32141 ft 402 kts 225°
2026-05-04 00:56 31.39825 -81.82666 32128 ft 407 kts 216°
2026-05-04 00:56 31.34901 -81.85984 32129 ft 409 kts 214°
2026-05-04 00:57 31.29966 -81.89307 32122 ft 409 kts 214°
2026-05-04 00:57 31.25044 -81.92640 32093 ft 408 kts 215°
2026-05-04 00:58 31.20140 -81.95966 32095 ft 407 kts 215°
2026-05-04 00:58 31.15236 -81.99289 32115 ft 407 kts 215°
2026-05-04 00:59 31.10367 -82.02583 32116 ft 407 kts 215°
2026-05-04 00:59 31.05467 -82.05895 32137 ft 407 kts 215°
2026-05-04 01:00 31.00573 -82.09198 32136 ft 406 kts 215°
2026-05-04 01:00 30.95680 -82.12496 32175 ft 406 kts 216°
2026-05-04 01:01 30.90792 -82.15788 32194 ft 406 kts 216°
2026-05-04 01:01 30.85901 -82.19079 32194 ft 406 kts 216°
2026-05-04 01:02 30.81011 -82.22364 32204 ft 406 kts 216°
2026-05-04 01:02 30.76145 -82.25630 32204 ft 406 kts 215°
2026-05-04 01:03 30.71251 -82.28909 32197 ft 406 kts 216°
2026-05-04 01:03 30.66012 -82.31533 32223 ft 416 kts 203°
2026-05-04 01:04 30.60247 -82.32664 32225 ft 427 kts 194°
2026-05-04 01:04 30.54336 -82.33354 32221 ft 427 kts 194°
2026-05-04 01:05 30.48415 -82.34063 32233 ft 427 kts 194°
2026-05-04 01:05 30.42513 -82.34793 32234 ft 426 kts 194°
2026-05-04 01:06 30.36610 -82.35529 32229 ft 426 kts 194°
2026-05-04 01:06 30.30717 -82.36263 32225 ft 426 kts 194°
2026-05-04 01:07 30.24826 -82.36996 32202 ft 425 kts 194°
2026-05-04 01:07 30.18937 -82.37726 32205 ft 425 kts 194°
2026-05-04 01:08 30.12989 -82.37811 32184 ft 435 kts 186°
2026-05-04 01:08 30.06945 -82.37422 32190 ft 435 kts 186°
2026-05-04 01:09 30.00893 -82.37054 32163 ft 435 kts 186°
2026-05-04 01:09 29.94843 -82.36710 32143 ft 435 kts 186°
2026-05-04 01:10 29.88837 -82.36377 32098 ft 435 kts 186°
2026-05-04 01:10 29.82792 -82.36041 32119 ft 434 kts 187°
2026-05-04 01:11 29.76754 -82.35707 32132 ft 434 kts 187°
2026-05-04 01:11 29.70712 -82.35372 32129 ft 435 kts 187°
2026-05-04 01:12 29.64653 -82.35036 32132 ft 435 kts 187°
2026-05-04 01:12 29.58608 -82.34702 32086 ft 435 kts 187°
2026-05-04 01:13 29.52603 -82.34370 32091 ft 434 kts 187°
2026-05-04 01:13 29.46566 -82.34037 32104 ft 434 kts 187°
2026-05-04 01:14 29.40518 -82.33702 32102 ft 435 kts 186°
2026-05-04 01:14 29.34447 -82.33081 32110 ft 439 kts 184°
2026-05-04 01:14 29.31392 -82.32694 31713 ft 444 kts 183°
2026-05-04 01:15 29.28321 -82.32301 31135 ft 442 kts 183°
2026-05-04 01:15 29.25300 -82.31918 30415 ft 442 kts 182°
2026-05-04 01:15 29.22231 -82.31537 29570 ft 443 kts 182°
2026-05-04 01:15 29.19157 -82.31164 28669 ft 444 kts 182°
2026-05-04 01:16 29.16071 -82.30794 27777 ft 445 kts 182°
2026-05-04 01:16 29.12991 -82.30427 26887 ft 445 kts 182°
2026-05-04 01:16 29.09918 -82.30061 26278 ft 445 kts 182°
2026-05-04 01:16 29.06834 -82.29696 25622 ft 447 kts 182°
2026-05-04 01:17 29.03747 -82.29328 24964 ft 442 kts 181°
2026-05-04 01:17 29.00699 -82.28964 24282 ft 438 kts 181°
2026-05-04 01:17 28.97675 -82.28603 23639 ft 435 kts 181°
2026-05-04 01:17 28.94680 -82.28247 22905 ft 431 kts 181°
2026-05-04 01:18 28.91715 -82.27895 22239 ft 426 kts 181°
2026-05-04 01:18 28.88786 -82.27547 21590 ft 421 kts 181°
2026-05-04 01:18 28.85928 -82.27209 20977 ft 416 kts 181°
2026-05-04 01:18 28.83064 -82.26871 20357 ft 412 kts 181°
2026-05-04 01:19 28.80222 -82.26536 19759 ft 408 kts 181°
2026-05-04 01:19 28.77415 -82.26205 19160 ft 404 kts 181°
2026-05-04 01:19 28.74625 -82.25876 18537 ft 401 kts 181°
2026-05-04 01:19 28.71856 -82.25686 17642 ft 399 kts 185°
2026-05-04 01:20 28.69089 -82.25666 16990 ft 394 kts 186°
2026-05-04 01:20 28.66357 -82.25662 16350 ft 391 kts 185°
2026-05-04 01:20 28.63641 -82.25641 15666 ft 389 kts 185°
2026-05-04 01:20 28.60930 -82.25598 14980 ft 388 kts 184°
2026-05-04 01:21 28.58235 -82.25543 14367 ft 386 kts 184°
2026-05-04 01:21 28.55565 -82.25489 13771 ft 383 kts 184°
2026-05-04 01:21 28.52906 -82.25436 13123 ft 380 kts 184°
2026-05-04 01:21 28.50299 -82.25394 12445 ft 379 kts 184°
2026-05-04 01:22 28.47672 -82.25361 11848 ft 376 kts 184°
2026-05-04 01:22 28.45058 -82.25330 11270 ft 374 kts 184°
2026-05-04 01:22 28.42491 -82.25296 11049 ft 361 kts 184°
2026-05-04 01:22 28.40023 -82.25261 10892 ft 349 kts 184°
2026-05-04 01:23 28.38435 -82.25266 10790 ft 339 kts 188°
2026-05-04 01:23 28.36203 -82.25835 10643 ft 321 kts 206°
2026-05-04 01:23 28.34304 -82.27024 10513 ft 305 kts 220°
2026-05-04 01:23 28.32700 -82.28535 10390 ft 294 kts 224°
2026-05-04 01:24 28.31173 -82.30024 10262 ft 285 kts 224°
2026-05-04 01:24 28.29686 -82.31467 10142 ft 277 kts 224°
2026-05-04 01:24 28.28238 -82.32867 10018 ft 270 kts 224°
2026-05-04 01:24 28.26806 -82.34242 9719 ft 269 kts 224°
2026-05-04 01:25 28.25379 -82.35607 9437 ft 267 kts 223°
2026-05-04 01:25 28.23959 -82.36960 9152 ft 266 kts 223°
2026-05-04 01:25 28.22545 -82.38307 8873 ft 265 kts 223°
2026-05-04 01:25 28.21132 -82.39653 8600 ft 264 kts 223°
2026-05-04 01:26 28.19596 -82.40792 8290 ft 269 kts 201°
2026-05-04 01:26 28.17754 -82.41167 8052 ft 270 kts 187°
2026-05-04 01:26 28.15897 -82.41240 7775 ft 270 kts 183°
2026-05-04 01:26 28.14019 -82.41256 7497 ft 269 kts 183°
2026-05-04 01:27 28.12146 -82.41271 7222 ft 268 kts 183°
2026-05-04 01:27 28.10281 -82.41296 6948 ft 268 kts 183°
2026-05-04 01:27 28.08420 -82.41327 6679 ft 267 kts 182°
2026-05-04 01:27 28.06563 -82.41361 6404 ft 267 kts 182°
2026-05-04 01:28 28.04703 -82.41402 6117 ft 267 kts 182°
2026-05-04 01:28 28.02850 -82.41446 5844 ft 266 kts 182°
2026-05-04 01:28 28.01004 -82.41491 5579 ft 265 kts 182°
2026-05-04 01:28 27.99181 -82.41536 5461 ft 258 kts 182°
2026-05-04 01:29 27.97408 -82.41574 5329 ft 251 kts 181°
2026-05-04 01:29 27.95680 -82.41610 5221 ft 245 kts 181°
2026-05-04 01:29 27.94000 -82.41646 5109 ft 238 kts 182°
2026-05-04 01:29 27.92367 -82.41682 5004 ft 231 kts 182°
2026-05-04 01:30 27.90823 -82.42022 4862 ft 224 kts 205°
2026-05-04 01:30 27.89443 -82.42754 4779 ft 214 kts 205°
2026-05-04 01:30 27.88111 -82.43418 4638 ft 204 kts 204°
2026-05-04 01:30 27.86821 -82.44049 4501 ft 201 kts 204°
2026-05-04 01:31 27.85539 -82.44673 4393 ft 199 kts 204°
2026-05-04 01:31 27.84304 -82.45272 4258 ft 192 kts 203°
2026-05-04 01:31 27.83102 -82.45887 4114 ft 191 kts 209°
2026-05-04 01:31 27.82085 -82.46864 3838 ft 194 kts 236°
2026-05-04 01:32 27.81534 -82.48220 3625 ft 189 kts 258°
2026-05-04 01:32 27.81435 -82.49669 3372 ft 182 kts 278°
2026-05-04 01:32 27.81762 -82.51002 3126 ft 171 kts 300°
2026-05-04 01:32 27.82408 -82.52061 2917 ft 160 kts 319°
2026-05-04 01:33 27.83266 -82.52800 2712 ft 153 kts 335°
2026-05-04 01:33 27.84267 -82.53140 2477 ft 150 kts
2026-05-04 01:33 27.85302 -82.53197 2339 ft 149 kts
2026-05-04 01:33 27.86342 -82.53227 2145 ft 150 kts
2026-05-04 01:34 27.87381 -82.53204 1964 ft 149 kts
2026-05-04 01:34 27.88423 -82.53170 1775 ft 152 kts
2026-05-04 01:34 27.89492 -82.53133 1572 ft 154 kts
2026-05-04 01:34 27.90537 -82.53099 1407 ft 149 kts
2026-05-04 01:35 27.91574 -82.53064 1194 ft 152 kts
2026-05-04 01:35 27.92650 -82.53029 994 ft 153 kts
2026-05-04 01:35 27.93690 -82.53011 886 ft 154 kts
2026-05-04 01:35 27.94806 -82.52940 542 ft 164 kts
2026-05-04 01:36 27.95907 -82.52926 270 ft 154 kts
2026-05-04 01:36 27.96957 -82.52890 54 ft 145 kts
2026-05-04 01:36 27.97989 -82.52846 37 ft 150 kts 357°
2026-05-04 01:36 27.98583 -82.52837 36 ft 25 kts 343°
2026-05-04 01:37 27.98596 -82.52863 36 ft 3 kts 261°
2026-05-04 01:37 27.98594 -82.52884 37 ft 3 kts 261°
2026-05-04 01:37 27.98591 -82.52904 38 ft 3 kts 261°
2026-05-04 01:37 27.98588 -82.52923 39 ft 2 kts 261°
2026-05-04 01:38 27.98586 -82.52941 40 ft 2 kts 261°
2026-05-04 01:38 27.98580 -82.52958 40 ft 2 kts 231°
2026-05-04 01:38 27.98564 -82.52961 40 ft 3 kts 176°
2026-05-04 01:38 27.98545 -82.52959 40 ft 4 kts 175°
2026-05-04 01:39 27.98490 -82.52956 40 ft 10 kts 177°
2026-05-04 01:39 27.98421 -82.52957 40 ft 10 kts 183°
2026-05-04 01:39 27.98354 -82.52960 40 ft 9 kts 180°
2026-05-04 01:39 27.98295 -82.52961 40 ft 8 kts 182°
2026-05-04 01:40 27.98236 -82.52963 40 ft 11 kts 181°
2026-05-04 01:40 27.98129 -82.52965 40 ft 16 kts 181°
2026-05-04 01:40 27.98017 -82.52966 41 ft 16 kts 180°
2026-05-04 01:40 27.97910 -82.52972 41 ft 15 kts 186°
2026-05-04 01:41 27.97838 -82.53045 39 ft 15 kts 221°
2026-05-04 01:41 27.97742 -82.53063 42 ft 14 kts 182°
2026-05-04 01:41 27.97646 -82.53066 42 ft 13 kts 182°
2026-05-04 01:41 27.97556 -82.53068 42 ft 13 kts 182°
2026-05-04 01:42 27.97467 -82.53071 42 ft 13 kts 181°
2026-05-04 01:42 27.97390 -82.53101 42 ft 12 kts 236°
2026-05-04 01:42 27.97383 -82.53195 42 ft 12 kts 270°
2026-05-04 01:42 27.97385 -82.53278 42 ft 10 kts 271°
2026-05-04 01:43 27.97410 -82.53350 42 ft 10 kts 317°
2026-05-04 01:43 27.97476 -82.53365 42 ft 10 kts
2026-05-04 01:43 27.97508 -82.53335 42 ft 5 kts 78°
2026-05-04 01:43 27.97509 -82.53310 42 ft 3 kts 90°
2026-05-04 01:44 27.97508 -82.53291 42 ft 1 kts 92°
2026-05-04 01:44 27.97508 -82.53281 42 ft 1 kts 91°
2026-05-04 01:44 27.97508 -82.53275 42 ft 0 kts 91°
2026-05-04 01:44 27.97508 -82.53274 42 ft 1 kts 91°
2026-05-04 01:45 27.97508 -82.53269 42 ft 0 kts 91°